H1 CPF 2 NER 2021 4 11 9 101 01 glonass128 H2 1106401 9128 37867 2021 4 11 0 0 0 2021 4 14 23 45 0 900 1 1 0 0 0 1 H9 10 0 59315 0.00000 0 14295934.408 -19916313.211 7186186.123 10 0 59315 900.00000 0 13711362.790 -19019311.003 10156089.061 10 0 59315 1800.00000 0 13062487.484 -17754994.814 12929705.775 10 0 59315 2700.00000 0 12406511.628 -16137846.302 15453534.487 10 0 59315 3600.00000 0 11797978.780 -14194944.117 17678912.622 10 0 59315 4500.00000 0 11286359.117 -11965048.941 19562934.148 10 0 59315 5400.00000 0 10913864.430 -9497217.126 21069257.724 10 0 59315 6300.00000 0 10713581.822 -6848999.046 22168792.063 10 0 59315 7200.00000 0 10708002.766 -4084295.044 22840246.903 10 0 59315 8100.00000 0 10908008.133 -1270955.265 23070540.263 10 0 59315 9000.00000 0 11312351.418 1521780.161 22855054.742 10 0 59315 9900.00000 0 11907662.341 4225897.439 22197737.861 10 0 59315 10800.00000 0 12668972.029 6777176.461 21111043.804 10 0 59315 11700.00000 0 13560739.856 9117605.193 19615716.226 10 0 59315 12600.00000 0 14538341.451 11197542.598 17740414.368 10 0 59315 13500.00000 0 15549958.218 12977541.264 15521187.347 10 0 59315 14400.00000 0 16538791.660 14429754.062 13000804.173 10 0 59315 15300.00000 0 17445511.638 15538865.523 10227949.986 10 0 59315 16200.00000 0 18210836.983 16302507.866 7256301.843 10 0 59315 17100.00000 0 18778140.291 16731142.711 4143500.140 10 0 59315 18000.00000 0 19095966.577 16847411.727 950034.601 10 0 59315 18900.00000 0 19120358.004 16684982.123 -2261933.941 10 0 59315 19800.00000 0 18816884.176 16286934.576 -5429792.746 10 0 59315 20700.00000 0 18162289.309 15703761.246 -8491712.427 10 0 59315 21600.00000 0 17145683.413 14991058.829 -11387872.622 10 0 59315 22500.00000 0 15769223.934 14207015.276 -14061652.130 10 0 59315 23400.00000 0 14048256.170 13409798.262 -16460757.946 10 0 59315 24300.00000 0 12010904.176 12654958.091 -18538268.955 10 0 59315 25200.00000 0 9697127.740 11992957.318 -20253571.831 10 0 59315 26100.00000 0 7157284.304 11466933.923 -21573169.166 10 0 59315 27000.00000 0 4450256.167 11110794.625 -22471342.811 10 0 59315 27900.00000 0 1641222.042 10947720.345 -22930658.857 10 0 59315 28800.00000 0 -1200832.625 10989147.753 -22942304.218 10 0 59315 29700.00000 0 -4005761.263 11234269.882 -22506248.688 10 0 59315 30600.00000 0 -6704946.131 11670076.140 -21631230.156 10 0 59315 31500.00000 0 -9233919.396 12271928.682 -20334564.482 10 0 59315 32400.00000 0 -11534805.805 13004648.958 -18641785.273 10 0 59315 33300.00000 0 -13558485.496 13824066.461 -16586122.180 10 0 59315 34200.00000 0 -15266387.824 14678962.187 -14207829.691 10 0 59315 35100.00000 0 -16631843.355 15513322.789 -11553381.143 10 0 59315 36000.00000 0 -17640940.182 16268808.685 -8674545.270 10 0 59315 36900.00000 0 -18292851.883 16887330.868 -5627364.672 10 0 59315 37800.00000 0 -18599626.830 17313627.188 -2471057.213 10 0 59315 38700.00000 0 -18585451.151 17497729.585 733137.551 10 0 59315 39600.00000 0 -18285419.398 17397218.944 3923144.070 10 0 59315 40500.00000 0 -17743867.206 16979173.784 7037245.702 10 0 59315 41400.00000 0 -17012337.890 16221732.209 10015266.280 10 0 59315 42300.00000 0 -16147269.458 15115203.006 12799716.358 10 0 59315 43200.00000 0 -15207499.370 13662680.620 15336883.537 10 0 59315 44100.00000 0 -14251691.140 11880139.170 17577847.556 10 0 59315 45000.00000 0 -13335789.413 9796001.962 19479402.554 10 0 59315 45900.00000 0 -12510608.380 7450204.091 21004870.829 10 0 59315 46800.00000 0 -11819652.563 4892785.983 22124794.398 10 0 59315 47700.00000 0 -11297259.261 2182074.528 22817492.710 10 0 59315 48600.00000 0 -10967138.822 -617475.242 23069477.021 10 0 59315 49500.00000 0 -10841372.804 -3437691.405 22875714.141 10 0 59315 50400.00000 0 -10919911.716 -6209252.508 22239734.406 10 0 59315 51300.00000 0 -11190593.928 -8864307.712 21173581.135 10 0 59315 52200.00000 0 -11629686.288 -11339043.944 19697601.125 10 0 59315 53100.00000 0 -12202925.779 -13576095.547 17840078.293 10 0 59315 54000.00000 0 -12867020.879 -15526697.833 15636715.212 10 0 59315 54900.00000 0 -13571552.024 -17152495.463 13129969.948 10 0 59315 55800.00000 0 -14261193.506 -18426929.942 10368258.579 10 0 59315 56700.00000 0 -14878164.939 -19336147.281 7405036.539 10 0 59315 57600.00000 0 -15364809.878 -19879386.315 4297774.780 10 0 59315 58500.00000 0 -15666192.729 -20068829.511 1106849.521 10 0 59315 59400.00000 0 -15732603.256 -19928920.815 -2105633.294 10 0 59315 60300.00000 0 -15521860.848 -19495177.756 -5277055.690 10 0 59315 61200.00000 0 -15001318.466 -18812546.965 -8345522.668 10 0 59315 62100.00000 0 -14149478.341 -17933372.297 -11251088.881 10 0 59315 63000.00000 0 -12957147.754 -16915061.949 -13936951.054 10 0 59315 63900.00000 0 -11428082.896 -15817554.370 -16350580.525 10 0 59315 64800.00000 0 -9579090.818 -14700691.956 -18444771.612 10 0 59315 65700.00000 0 -7439582.978 -13621615.611 -20178583.261 10 0 59315 66600.00000 0 -5050597.835 -12632292.551 -21518153.827 10 0 59315 67500.00000 0 -2463332.916 -11777283.739 -22437371.878 10 0 59315 68400.00000 0 262751.940 -11091846.776 -22918389.231 10 0 59315 69300.00000 0 3062179.952 -10600455.225 -22951966.010 10 0 59315 70200.00000 0 5865956.408 -10315796.937 -22537641.403 10 0 59315 71100.00000 0 8604215.737 -10238293.020 -21683727.598 10 0 59315 72000.00000 0 11208905.008 -10356156.316 -20407128.191 10 0 59315 72900.00000 0 13616391.240 -10645984.983 -18732986.139 10 0 59315 73800.00000 0 15769883.716 -11073863.755 -16694169.685 10 0 59315 74700.00000 0 17621570.698 -11596923.888 -14330608.102 10 0 59315 75600.00000 0 19134382.817 -12165293.489 -11688491.854 10 0 59315 76500.00000 0 20283311.553 -12724353.710 -8819354.374 10 0 59315 77400.00000 0 21056230.301 -13217203.843 -5779054.782 10 0 59315 78300.00000 0 21454186.842 -13587230.136 -2626682.485 10 0 59315 79200.00000 0 21491158.229 -13780669.435 576594.278 10 0 59315 80100.00000 0 21193281.535 -13749059.697 3768713.113 10 0 59315 81000.00000 0 20597595.554 -13451474.807 6887912.457 10 0 59315 81900.00000 0 19750348.486 -12856450.734 9873914.297 10 0 59315 82800.00000 0 18704944.036 -11943523.374 12669072.639 10 0 59315 83700.00000 0 17519612.692 -10704314.841 15219466.981 10 0 59315 84600.00000 0 16254905.494 -9143123.681 17475921.505 10 0 59315 85500.00000 0 14971114.271 -7276994.959 19394932.218 10 0 59316 0.00000 0 13725724.614 -5135267.210 20939486.297 10 0 59316 900.00000 0 12571006.243 -2758613.909 22079759.987 10 0 59316 1800.00000 0 11551838.717 -197618.824 22793682.891 10 0 59316 2700.00000 0 10703862.599 2489059.420 23067359.587 10 0 59316 3600.00000 0 10052030.151 5236858.950 22895340.823 10 0 59316 4500.00000 0 9609616.417 7977736.192 22280739.135 10 0 59316 5400.00000 0 9377731.208 10642739.967 21235186.055 10 0 59316 6300.00000 0 9345353.201 13164634.501 19778630.304 10 0 59316 7200.00000 0 9489885.997 15480464.872 17938979.006 10 0 59316 8100.00000 0 9778214.684 17533960.175 15751586.489 10 0 59316 9000.00000 0 10168220.673 19277675.370 13258597.976 10 0 59316 9900.00000 0 10610693.281 20674782.476 10508158.382 10 0 59316 10800.00000 0 11051559.330 21700435.622 7553499.259 10 0 59316 11700.00000 0 11434337.995 22342651.315 4451919.702 10 0 59316 12600.00000 0 11702717.610 22602665.111 1263679.898 10 0 59316 13500.00000 0 11803144.988 22494747.696 -1949171.686 10 0 59316 14400.00000 0 11687316.238 22045486.202 -5124014.427 10 0 59316 15300.00000 0 11314461.377 21292559.592 -8198890.225 10 0 59316 16200.00000 0 10653323.088 20283058.920 -11113731.119 10 0 59316 17100.00000 0 9683742.599 19071423.306 -13811553.940 10 0 59316 18000.00000 0 8397782.305 17717079.422 -16239596.337 10 0 59316 18900.00000 0 6800334.603 16281885.542 -18350369.807 10 0 59316 19800.00000 0 4909188.610 14827489.832 -20102607.093 10 0 59316 20700.00000 0 2754550.126 13412716.467 -21462083.644 10 0 59316 21600.00000 0 378033.858 12091091.782 -22402295.878 10 0 59316 22500.00000 0 -2168830.149 10908616.417 -22904982.255 10 0 59316 23400.00000 0 -4826512.836 9901878.433 -22960476.785 10 0 59316 24300.00000 0 -7529744.173 9096587.232 -22567888.426 10 0 59316 25200.00000 0 -10210017.369 8506589.544 -21735103.684 10 0 59316 26100.00000 0 -12798233.393 8133407.680 -20478613.530 10 0 59316 27000.00000 0 -15227374.411 7966317.494 -18823169.500 10 0 59316 27900.00000 0 -17435094.079 7982960.270 -16801277.297 10 0 59316 28800.00000 0 -19366116.497 8150459.914 -14452539.529 10 0 59316 29700.00000 0 -20974344.474 8426995.447 -11822862.096 10 0 59316 30600.00000 0 -22224590.501 8763759.700 -8963541.270 10 0 59316 31500.00000 0 -23093860.121 9107219.279 -5930250.724 10 0 59316 32400.00000 0 -23572136.719 9401578.563 -2781949.377 10 0 59316 33300.00000 0 -23662637.800 9591342.665 420267.937 10 0 59316 34200.00000 0 -23381535.053 9623870.793 3614354.124 10 0 59316 35100.00000 0 -22757152.793 9451812.570 6738504.922 10 0 59316 36000.00000 0 -21828680.754 9035325.435 9732342.786 10 0 59316 36900.00000 0 -20644456.942 8343980.952 12538067.536 10 0 59316 37800.00000 0 -19259893.425 7358281.206 15101552.994 10 0 59316 38700.00000 0 -17735131.984 6070722.751 17373370.194 10 0 59316 39600.00000 0 -16132526.971 4486364.440 19309719.357 10 0 59316 40500.00000 0 -14514059.112 2622875.572 20873254.801 10 0 59316 41400.00000 0 -12938786.249 510061.868 22033788.898 10 0 59316 42300.00000 0 -11460435.182 -1811112.168 22768863.193 10 0 59316 43200.00000 0 -10125232.716 -4289965.902 23064177.056 10 0 59316 44100.00000 0 -8970064.355 -6867952.950 22913866.292 10 0 59316 45000.00000 0 -8021035.911 -9480845.513 22320626.417 10 0 59316 45900.00000 0 -7292497.158 -12061165.334 21295677.577 10 0 59316 46800.00000 0 -6786568.194 -14540763.586 19858570.458 10 0 59316 47700.00000 0 -6493188.995 -16853445.299 18036835.042 10 0 59316 48600.00000 0 -6390691.310 -18937531.414 15865476.678 10 0 59316 49500.00000 0 -6446870.683 -20738253.205 13386326.638 10 0 59316 50400.00000 0 -6620515.463 -22209879.560 10647257.216 10 0 59316 51300.00000 0 -6863330.251 -23317487.835 7701274.292 10 0 59316 52200.00000 0 -7122174.068 -24038302.863 4605503.022 10 0 59316 53100.00000 0 -7341519.499 -24362546.040 1420085.227 10 0 59316 54000.00000 0 -7466028.731 -24293756.645 -1792990.681 10 0 59316 54900.00000 0 -7443136.460 -23848569.592 -4971104.236 10 0 59316 55800.00000 0 -7225528.455 -23055957.047 -8052237.242 10 0 59316 56700.00000 0 -6773408.165 -21955964.407 -10976202.307 10 0 59316 57600.00000 0 -6056452.318 -20597993.260 -13685839.660 10 0 59316 58500.00000 0 -5055369.428 -19038703.804 -16128156.585 10 0 59316 59400.00000 0 -3762992.068 -17339626.040 -18255385.007 10 0 59316 60300.00000 0 -2184853.889 -15564581.829 -20025934.508 10 0 59316 61200.00000 0 -339224.781 -13777028.311 -21405220.355 10 0 59316 62100.00000 0 1743398.886 -12037436.455 -22366349.108 10 0 59316 63000.00000 0 4021328.338 -10400816.798 -22890647.669 10 0 59316 63900.00000 0 6443197.358 -8914497.771 -22968025.187 10 0 59316 64800.00000 0 8949894.079 -7616250.629 -22597161.110 10 0 59316 65700.00000 0 11476827.767 -6532839.604 -21785516.462 10 0 59316 66600.00000 0 13956434.451 -5679057.248 -20549169.288 10 0 59316 67500.00000 0 16320815.539 -5057283.663 -18912478.938 10 0 59316 68400.00000 0 18504398.254 -4657585.656 -16907587.336 10 0 59316 69300.00000 0 20446506.232 -4458348.701 -14573768.722 10 0 59316 70200.00000 0 22093733.038 -4427411.866 -11956642.264 10 0 59316 71100.00000 0 23402020.262 -4523654.716 -9107264.455 10 0 59316 72000.00000 0 24338354.740 -4698966.392 -6081120.501 10 0 59316 72900.00000 0 24882016.032 -4900511.398 -2937035.480 10 0 59316 73800.00000 0 25025324.490 -5073194.727 263972.747 10 0 59316 74700.00000 0 24773861.293 -5162221.303 3459876.045 10 0 59316 75600.00000 0 24146154.005 -5115641.510 6588831.060 10 0 59316 76500.00000 0 23172843.240 -4886775.852 9590364.143 10 0 59316 77400.00000 0 21895367.242 -4436417.536 12406524.094 10 0 59316 78300.00000 0 20364220.670 -3734721.535 14982981.863 10 0 59316 79200.00000 0 18636860.744 -2762701.968 17270057.757 10 0 59316 80100.00000 0 16775347.874 -1513276.095 19223658.225 10 0 59316 81000.00000 0 14843817.977 8188.208 20806106.306 10 0 59316 81900.00000 0 12905890.032 1783844.469 21986851.754 10 0 59316 82800.00000 0 11022114.642 3783861.025 22743048.855 10 0 59316 83700.00000 0 9247567.377 5967416.919 23059992.178 10 0 59316 84600.00000 0 7629684.694 8284161.165 22931402.611 10 0 59316 85500.00000 0 6206430.572 10676077.551 22359558.273 10 0 59317 0.00000 0 5004868.732 13079680.723 21355267.198 10 0 59317 900.00000 0 4040199.375 15428455.716 19937680.823 10 0 59317 1800.00000 0 3315300.064 17655442.253 18133950.539 10 0 59317 2700.00000 0 2820791.859 19695858.907 15978730.907 10 0 59317 3600.00000 0 2535627.731 21489659.815 13513537.174 10 0 59317 4500.00000 0 2428181.340 22983917.635 10785966.710 10 0 59317 5400.00000 0 2457791.524 24134933.328 7848797.219 10 0 59317 6300.00000 0 2576699.085 24909983.295 4758977.259 10 0 59317 7200.00000 0 2732295.105 25288628.780 1576527.495 10 0 59317 8100.00000 0 2869586.054 25263530.270 -1636626.559 10 0 59317 9000.00000 0 2933770.808 24840730.119 -4817867.434 10 0 59317 9900.00000 0 2872819.077 24039389.098 -7905119.593 10 0 59317 10800.00000 0 2639939.772 22890985.977 -10838078.810 10 0 59317 11700.00000 0 2195831.962 21438012.519 -13559411.103 10 0 59317 12600.00000 0 1510619.930 19732218.288 -16015895.524 10 0 59317 13500.00000 0 565387.222 17832479.445 -18159486.295 10 0 59317 14400.00000 0 -646758.211 15802382.183 -19948271.443 10 0 59317 15300.00000 0 -2120135.293 13707624.004 -21347307.398 10 0 59317 16200.00000 0 -3836482.558 11613343.855 -22329311.943 10 0 59317 17100.00000 0 -5765493.855 9581495.040 -22875201.221 10 0 59317 18000.00000 0 -7865874.830 7668372.737 -22974460.013 10 0 59317 18900.00000 0 -10086875.558 5922400.763 -22625338.386 10 0 59317 19800.00000 0 -12370234.231 4382270.603 -21834871.612 10 0 59317 20700.00000 0 -14652449.189 3075510.167 -20618724.114 10 0 59317 21600.00000 0 -16867282.933 2017540.736 -19000861.930 10 0 59317 22500.00000 0 -18948392.126 1211259.382 -17013061.691 10 0 59317 23400.00000 0 -20831972.627 647161.513 -14694267.439 10 0 59317 24300.00000 0 -22459308.592 303995.019 -12089809.527 10 0 59317 25200.00000 0 -23779119.199 149915.043 -9250502.445 10 0 59317 26100.00000 0 -24749605.669 144087.446 -6231640.621 10 0 59317 27000.00000 0 -25340114.428 238670.411 -3091912.952 10 0 59317 27900.00000 0 -25532348.782 381088.282 107742.015 10 0 59317 28800.00000 0 -25321080.730 516500.131 3305317.458 10 0 59317 29700.00000 0 -24714335.591 590358.051 6438933.280 10 0 59317 30600.00000 0 -23733044.062 550947.265 9448022.081 10 0 59317 31500.00000 0 -22410178.250 351801.577 12274483.971 10 0 59317 32400.00000 0 -20789409.203 -46106.441 14863789.310 10 0 59317 33300.00000 0 -18923342.664 -672491.363 17166009.848 10 0 59317 34200.00000 0 -16871406.561 -1546274.319 19136760.266 10 0 59317 35100.00000 0 -14697477.311 -2674557.027 20738034.105 10 0 59317 36000.00000 0 -12467342.104 -4052092.958 21938920.002 10 0 59317 36900.00000 0 -10246100.570 -5661278.016 22716186.166 10 0 59317 37800.00000 0 -8095611.314 -7472662.168 23054723.225 10 0 59317 38700.00000 0 -6072086.815 -9445962.607 22947837.684 10 0 59317 39600.00000 0 -4223934.356 -11531538.728 22397390.488 10 0 59317 40500.00000 0 -2589930.785 -13672270.579 21413777.413 10 0 59317 41400.00000 0 -1197805.749 -15805765.871 20015750.431 10 0 59317 42300.00000 0 -63291.939 -17866806.735 18230081.626 10 0 59317 43200.00000 0 810317.899 -19789937.138 16091073.885 10 0 59317 44100.00000 0 1432087.817 -21512085.118 13639925.244 10 0 59317 45000.00000 0 1822831.541 -22975111.556 10923956.691 10 0 59317 45900.00000 0 2014005.335 -24128179.160 7995716.044 10 0 59317 46800.00000 0 2046145.940 -24929841.723 4911973.317 10 0 59317 47700.00000 0 1966918.236 -25349764.356 1732625.871 10 0 59317 48600.00000 0 1828854.483 -25370000.181 -1480466.017 10 0 59317 49500.00000 0 1686880.878 -24985767.130 -4664690.370 10 0 59317 50400.00000 0 1595737.074 -24205689.361 -7757916.967 10 0 59317 51300.00000 0 1607399.719 -23051490.671 -10699727.532 10 0 59317 52200.00000 0 1768621.650 -21557150.806 -13432616.747 10 0 59317 53100.00000 0 2118693.820 -19767558.983 -15903138.343 10 0 59317 54000.00000 0 2687527.888 -17736720.847 -18062971.690 10 0 59317 54900.00000 0 3494143.596 -15525594.635 -19869885.963 10 0 59317 55800.00000 0 4545627.535 -13199648.582 -21288581.188 10 0 59317 56700.00000 0 5836609.416 -10826243.595 -22291388.456 10 0 59317 57600.00000 0 7349279.339 -8471952.676 -22858814.810 10 0 59317 58500.00000 0 9053946.013 -6199931.079 -22979921.857 10 0 59317 59400.00000 0 10910112.375 -4067448.532 -22652531.006 10 0 59317 60300.00000 0 12868022.777 -2123687.385 -21883252.033 10 0 59317 61200.00000 0 14870615.599 -407898.706 -20687335.546 10 0 59317 62100.00000 0 16855798.027 1052007.604 -19088353.646 10 0 59317 63000.00000 0 18758946.223 2240381.580 -17117716.612 10 0 59317 63900.00000 0 20515524.849 3154224.968 -14814036.791 10 0 59317 64800.00000 0 22063715.360 3803042.856 -12222353.803 10 0 59317 65700.00000 0 23346942.653 4208164.960 -9393237.779 10 0 59317 66600.00000 0 24316194.478 4401568.681 -6381789.640 10 0 59317 67500.00000 0 24932037.364 4424256.837 -3246559.046 10 0 59317 68400.00000 0 25166246.111 4324261.322 -48401.948 10 0 59317 69300.00000 0 25002980.443 4154358.979 3150699.524 10 0 59317 70200.00000 0 24439461.756 3969597.422 6288831.906 10 0 59317 71100.00000 0 23486123.732 3824735.699 9305337.293 10 0 59317 72000.00000 0 22166232.497 3771707.395 12141970.144 10 0 59317 72900.00000 0 20514993.650 3857212.233 14744002.989 10 0 59317 73800.00000 0 18578184.270 4120536.215 17061261.472 10 0 59317 74700.00000 0 16410367.046 4591690.488 19049070.625 10 0 59317 75600.00000 0 14072760.199 5289945.750 20669096.270 10 0 59317 76500.00000 0 11630850.279 6222822.698 21890067.369 10 0 59317 77400.00000 0 9151845.010 7385580.448 22688367.146 10 0 59317 78300.00000 0 6702069.393 8761224.747 23048483.006 10 0 59317 79200.00000 0 4344410.400 10321036.921 22963307.401 10 0 59317 80100.00000 0 2135913.714 12025603.471 22434284.004 10 0 59317 81000.00000 0 125629.964 13826306.056 21471395.839 10 0 59317 81900.00000 0 -1647201.863 15667212.812 20092994.374 10 0 59317 82800.00000 0 -3154559.255 17487295.224 18325471.041 10 0 59317 83700.00000 0 -4380571.087 19222881.013 16202775.274 10 0 59317 84600.00000 0 -5321943.199 20810243.043 13765785.807 10 0 59317 85500.00000 0 -5987855.773 22188217.551 11061544.896 10 0 59318 0.00000 0 -6399335.496 23300742.896 8142367.975 10 0 59318 900.00000 0 -6588127.363 24099211.753 5064843.663 10 0 59318 1800.00000 0 -6595112.356 24544537.561 1888743.255 10 0 59318 2700.00000 0 -6468336.647 24608844.650 -1324141.105 10 0 59318 3600.00000 0 -6260735.595 24276710.095 -4511205.832 10 0 59318 4500.00000 0 -6027649.081 23545900.668 -7610268.869 10 0 59318 5400.00000 0 -5824234.775 22427571.620 -10560800.612 10 0 59318 6300.00000 0 -5702890.901 20945916.161 -13305126.945 10 0 59318 7200.00000 0 -5710800.212 19137278.562 -15789578.585 10 0 59318 8100.00000 0 -5887702.083 17048767.065 -17965562.089 10 0 59318 9000.00000 0 -6263989.973 14736424.581 -19790529.528 10 0 59318 9900.00000 0 -6859217.383 12263034.556 -21228825.987 10 0 59318 10800.00000 0 -7681077.712 9695655.119 -22252397.019 10 0 59318 11700.00000 0 -8724902.682 7102986.299 -22841341.404 10 0 59318 12600.00000 0 -9973701.327 4552682.189 -22984298.060 10 0 59318 13500.00000 0 -11398738.030 2108721.814 -22678659.834 10 0 59318 14400.00000 0 -12960624.747 -171050.470 -21930610.678 10 0 59318 15300.00000 0 -14610880.338 -2237111.979 -20754986.606 10 0 59318 16200.00000 0 -16293890.046 -4050085.296 -19174964.561 10 0 59318 17100.00000 0 -17949181.229 -5582123.722 -17221586.836 10 0 59318 18000.00000 0 -19513918.229 -6817802.821 -14933132.096 10 0 59318 18900.00000 0 -20925510.428 -7754483.738 -12354346.970 10 0 59318 19800.00000 0 -22124223.257 -8402136.534 -9535554.794 10 0 59318 20700.00000 0 -23055682.271 -8782634.566 -6531660.430 10 0 59318 21600.00000 0 -23673165.669 -8928553.223 -3401071.715 10 0 59318 22500.00000 0 -23939589.985 -8881526.838 -204559.407 10 0 59318 23400.00000 0 -23829107.135 -8690235.598 2995921.641 10 0 59318 24300.00000 0 -23328247.676 -8408109.258 6138427.150 10 0 59318 25200.00000 0 -22436564.265 -8090845.466 9162211.230 10 0 59318 26100.00000 0 -21166750.243 -7793847.507 12008885.120 10 0 59318 27000.00000 0 -19544229.848 -7569688.826 14623525.842 10 0 59318 27900.00000 0 -17606238.093 -7465709.914 16955715.077 10 0 59318 28800.00000 0 -15400428.974 -7521847.069 18960490.115 10 0 59318 29700.00000 0 -12983069.419 -7768782.660 20599190.675 10 0 59318 30600.00000 0 -10416892.748 -8226493.096 21840187.325 10 0 59318 31500.00000 0 -7768698.889 -8903254.413 22659479.222 10 0 59318 32400.00000 0 -5106798.392 -9795146.858 23041151.105 10 0 59318 33300.00000 0 -2498403.381 -10886079.743 22977681.587 10 0 59318 34200.00000 0 -7070.869 -12148336.886 22470096.970 10 0 59318 35100.00000 0 2309698.243 -13543621.970 21527967.151 10 0 59318 36000.00000 0 4402606.995 -15024562.847 20169242.460 10 0 59318 36900.00000 0 6232369.275 -16536614.890 18419932.810 10 0 59318 37800.00000 0 7771101.393 -18020286.799 16313633.074 10 0 59318 38700.00000 0 9003240.372 -19413598.394 13890901.326 10 0 59318 39600.00000 0 9925949.800 -20654669.445 11198499.468 10 0 59318 40500.00000 0 10548995.119 -21684332.116 8288508.535 10 0 59318 41400.00000 0 10894092.123 -22448657.554 5217333.888 10 0 59318 42300.00000 0 10993754.532 -22901289.480 2044618.277 10 0 59318 43200.00000 0 10889688.055 -23005484.818 -1167916.784 10 0 59318 44100.00000 0 10630798.030 -22735772.871 -4357678.738 10 0 59318 45000.00000 0 10270894.872 -22079160.096 -7462436.379 10 0 59318 45900.00000 0 9866195.188 -21035826.562 -10421551.507 10 0 59318 46800.00000 0 9472725.912 -19619281.750 -13177183.920 10 0 59318 47700.00000 0 9143743.515 -17855970.650 -15675443.966 10 0 59318 48600.00000 0 8927280.194 -15784344.938 -17867467.917 10 0 59318 49500.00000 0 8863923.635 -13453437.269 -19710393.073 10 0 59318 50400.00000 0 8984926.928 -10920998.461 -21168211.632 10 0 59318 51300.00000 0 9310730.800 -8251276.254 -22212485.319 10 0 59318 52200.00000 0 9849962.309 -5512529.794 -22822905.959 10 0 59318 53100.00000 0 10598953.245 -2774385.328 -22987690.645 10 0 59318 54000.00000 0 11541798.775 -105145.007 -22703804.078 10 0 59318 54900.00000 0 12650953.428 2430837.639 -21977004.367 10 0 59318 55800.00000 0 13888338.177 4775605.294 -20821712.499 10 0 59318 56700.00000 0 15206910.499 6879765.476 -19260709.423 10 0 59318 57600.00000 0 16552629.576 8704290.539 -17324668.241 10 0 59318 58500.00000 0 17866732.135 10221875.564 -15051532.362 10 0 59318 59400.00000 0 19088221.594 11417799.912 -12485753.484 10 0 59318 60300.00000 0 20156464.618 12290259.555 -9677405.872 10 0 59318 61200.00000 0 21013785.140 12850159.738 -6681195.735 10 0 59318 62100.00000 0 21607946.680 13120380.371 -3555386.241 10 0 59318 63000.00000 0 21894419.118 13134548.548 -360659.920 10 0 59318 63900.00000 0 21838335.692 12935372.819 2841058.760 10 0 59318 64800.00000 0 21416059.504 12572611.767 5987797.802 10 0 59318 65700.00000 0 20616295.482 12100763.996 9018726.306 10 0 59318 66600.00000 0 19440702.877 11576577.471 11875315.089 10 0 59318 67500.00000 0 17903984.109 11056482.913 14502448.224 10 0 59318 68400.00000 0 16033447.247 10594058.314 16849465.722 10 0 59318 69300.00000 0 13868060.787 10237629.720 18871119.150 10 0 59318 70200.00000 0 11457039.767 10028107.299 20528423.854 10 0 59318 71100.00000 0 8858020.856 9997145.770 21789393.436 10 0 59318 72000.00000 0 6134900.459 10165704.816 22629644.109 10 0 59318 72900.00000 0 3355423.049 10543068.860 23032858.729 10 0 59318 73800.00000 0 588616.833 11126367.021 22991102.468 10 0 59318 74700.00000 0 -2097819.892 11900613.912 22504984.247 10 0 59318 75600.00000 0 -4640076.320 12839271.024 21583660.370 10 0 59318 76500.00000 0 -6980627.126 13905307.308 20244679.107 10 0 59318 77400.00000 0 -9070373.192 15052717.193 18513667.471 10 0 59318 78300.00000 0 -10870437.312 16228435.300 16423863.981 10 0 59318 79200.00000 0 -12353540.517 17374570.325 14015503.916 10 0 59318 80100.00000 0 -13504901.131 18430866.628 11335066.403 10 0 59318 81000.00000 0 -14322618.011 19337291.738 8434395.547 10 0 59318 81900.00000 0 -14817520.466 20036641.587 5369710.591 10 0 59318 82800.00000 0 -15012489.521 20477053.442 2200523.016 10 0 59318 83700.00000 0 -14941277.666 20614319.253 -1011519.115 10 0 59318 84600.00000 0 -14646875.761 20413899.637 -4203837.080 10 0 59318 85500.00000 0 -14179495.587 19852550.608 -7314153.291 99